Dewpoint
-0 0 2 2 2 2 1 1 1 0 -1 -2 -3 -3 -4 -3 2 3 2 1 0 -0 -0 -0 -0 0 1 1 1 1 1 1 0 1 1 2 3 3 2 2 2 1 1 1
-1 0 0 2 2 2 2 1 1 1 2 -3 -4 -4 -0 -1 2 2 2 1 -0 -1 -1 -1 -0 0 1 1 1 1 0 0 1 1 1 2 1 1 1 1 -0 -1 -0 -0
2 1 1 1 1 1 2 1 1 2 -0 -2 -2 -1 0 1 2 2 3 2 0 -1 -2 -1 -0 0 1 1 0 -0 0 0 0 1 1 1 0 -0 -1 -1 -1 -1 -1 -1
1 1 1 -3 -0 -0 0 1 1 0 -1 -2 -2 -1 -1 0 2 3 3 1 -1 -2 -2 -2 -1 0 0 -0 -1 -1 -0 0 0 -0 -1 -1 -1 -1 -1 -1 -2 -2 -2 -2
2 2 -1 1 -0 0 2 2 -0 -0 -1 -2 -1 0 1 1 3 3 1 -1 -1 -2 -2 -2 -1 -1 -1 -1 -1 -0 -0 -0 -1 -1 -1 -1 -2 -2 -2 -2 -2 -2 -3 -12
3 3 4 2 -1 -1 -1 5 2 -1 -1 -1 2 2 2 2 2 1 0 -1 -1 -2 -3 -2 -1 -1 -1 -2 -1 -1 -1 -1 -1 -1 -1 -2 -2 -2 -3 -7 -17 -19 -20 -21
3 3 1 -1 1 0 6 4 2 -1 -2 -1 2 1 4 3 1 1 -0 -1 -2 -2 -2 -2 -2 -2 -2 -2 -1 -1 -1 -2 -2 -2 -2 -2 -5 -14 -18 -20 -21 -23 -26 -27
2 4 3 0 -1 3 3 2 2 2 2 2 2 3 4 3 1 1 -0 -1 -1 -1 -2 -2 -2 -2 -3 -1 -1 -1 -1 -1 -2 -2 -4 -12 -16 -19 -21 -22 -24 -26 -26 -27
0 1 -2 -1 0 2 2 2 2 2 2 2 2 3 2 2 2 1 0 -1 -1 -1 -1 -1 -2 -2 -1 -1 -1 -1 -1 -2 -2 -7 -14 -15 -18 -20 -22 -24 -26 -27 -27 -27
-1 -2 -2 -2 0 1 2 2 2 1 1 1 2 2 2 2 2 2 1 -0 -1 -1 -1 -1 -2 -1 -1 -1 -1 -1 -2 -2 -11 -16 -15 -17 -20 -21 -23 -26 -28 -27 -28 -27
-0 -1 -2 -2 -2 0 2 2 1 1 1 1 1 2 2 2 2 2 2 1 -1 -1 -1 -2 -1 -1 -1 -1 -1 -2 -3 -11 -17 -16 -16 -20 -22 -23 -26 -29 -30 -29 -29 -28
1 -1 -1 2 1 -1 1 3 3 3 2 2 1 1 1 2 2 1 2 1 -0 -1 -1 -1 -1 -1 -1 -1 -2 -2 -8 -16 -17 -16 -17 -21 -22 -24 -28 -31 -31 -29 -29 -29
-0 1 1 2 3 3 3 3 3 2 1 1 1 1 1 2 2 1 2 2 1 -0 -1 -1 -1 -1 -1 -1 -2 -3 -10 -16 -17 -16 -17 -20 -21 -23 -26 -28 -30 -30 -28 -28
0 0 1 1 1 2 2 1 1 1 1 1 1 1 1 1 2 2 1 2 2 1 -1 -1 -1 -1 -1 -1 -2 -4 -10 -16 -17 -16 -16 -20 -21 -23 -24 -29 -31 -30 -29 -28
-0 -1 -1 1 2 2 1 1 1 1 0 0 1 1 1 1 1 1 2 1 2 1 -0 -1 -1 -1 -1 -1 -2 -5 -10 -15 -17 -17 -16 -17 -21 -22 -24 -27 -30 -31 -30 -29
1 0 0 1 1 1 0 0 0 0 0 0 -0 0 0 0 1 1 1 1 1 2 2 1 -0 -1 -1 -1 -2 -4 -8 -13 -16 -18 -17 -16 -19 -21 -23 -24 -28 -31 -31 -30
0 0 0 0 -0 -0 -1 -1 -1 -0 -0 -0 -0 -0 0 0 0 1 1 1 1 1 2 1 1 -0 -0 -1 -2 -3 -6 -10 -13 -16 -18 -17 -16 -20 -22 -23 -24 -28 -30 -30
0 0 -0 -0 -1 -1 -1 -0 0 0 0 0 1 1 0 0 0 1 0 0 0 0 1 2 1 0 0 -0 -1 -2 -4 -7 -9 -11 -14 -17 -17 -17 -20 -22 -23 -24 -28 -30
-1 -1 -1 -1 -1 -0 1 1 1 1 1 0 -0 -0 0 1 1 1 0 -0 -0 -0 1 1 1 1 1 1 -0 -1 -3 -5 -6 -8 -10 -14 -17 -16 -17 -20 -22 -23 -25 -28
-1 -0 -0 0 0 0 0 0 0 0 -0 -2 -2 -1 0 1 1 0 -0 -1 -1 -1 -0 0 1 1 1 1 -0 -0 -1 -2 -5 -3 -5 -9 -13 -16 -16 -18 -21 -22 -23 -25
-0 -0 -0 -0 -0 -0 -1 -2 -2 -1 -0 0 -0 -2 -2 -2 -1 -1 -2 -1 -1 -1 -0 -0 -0 -0 -0 -0 -1 -1 -1 -1 -3 -3 -2 -5 -9 -13 -16 -16 -19 -21 -22 -23
-6 -8 -10 -9 -7 -7 -7 -6 -6 -5 -4 -3 -2 -0 -0 -0 -1 -1 -1 -1 -1 -2 -1 -1 -0 -0 -0 -1 -1 -1 -1 -1 -1 -2 -2 -5 -6 -6 -13 -15 -17 -20 -22 -22
-13 -15 -17 -19 -18 -16 -15 -14 -15 -11 -8 -7 -5 -4 -4 -3 -2 -1 -0 -1 -0 -0 -0 -0 -0 -1 -1 -2 -2 -2 -2 -2 -2 -2 -2 -3 -4 -3 -11 -15 -16 -19 -21 -22
-10 -11 -14 -20 -24 -23 -23 -24 -25 -23 -20 -14 -9 -6 -5 -5 -5 -4 -4 -4 -2 -1 -1 -1 -1 -1 -2 -1 -2 -2 -2 -2 -2 -2 -2 -2 -3 -4 -6 -11 -15 -17 -20 -21
-7 -9 -12 -21 -25 -25 -24 -23 -22 -21 -21 -21 -20 -17 -12 -8 -7 -6 -5 -5 -5 -5 -5 -4 -2 -3 -3 -2 -2 -2 -2 -3 -3 -3 -3 -3 -3 -4 -5 -7 -14 -17 -20 -21
-8 -8 -10 -19 -26 -25 -23 -22 -20 -20 -19 -18 -17 -17 -18 -17 -11 -9 -8 -6 -5 -5 -5 -6 -6 -5 -3 -3 -4 -5 -5 -4 -4 -4 -4 -4 -4 -4 -5 -5 -13 -16 -19 -21
-7 -7 -10 -22 -25 -24 -22 -21 -20 -18 -17 -17 -16 -15 -16 -16 -16 -15 -12 -10 -8 -7 -7 -6 -6 -6 -7 -6 -4 -4 -4 -5 -5 -5 -5 -5 -5 -5 -5 -6 -12 -16 -18 -15
Wind_Speed
1 3 3 4 4 7 6 5 6 3 6 11 12 9 18 20 18 19 17 15 14 12 12 11 10 9 8 6 6 6 7 6 6 6 5 4 3 2 1 1 3 4 5 7
3 3 3 4 7 8 8 6 6 3 5 6 9 15 14 21 20 19 16 14 13 13 13 13 13 10 10 8 7 7 7 6 6 5 3 1 3 4 6 8 10 12 13 14
3 3 1 6 13 14 6 6 12 9 9 1 4 9 14 17 17 15 14 14 15 14 15 15 12 12 10 9 8 9 8 7 4 3 3 4 6 8 10 12 11 12 13 12
3 1 1 6 4 7 18 10 8 5 7 6 10 13 12 11 13 13 12 13 13 14 15 14 13 12 10 10 9 9 7 5 4 5 7 9 11 12 12 12 11 12 13 12
3 3 6 2 4 5 7 9 11 11 7 8 8 10 6 10 11 11 11 10 11 14 14 13 12 11 11 10 9 7 6 7 7 8 10 11 13 13 12 11 10 9 11 11
2 2 5 3 2 2 3 3 2 16 11 7 12 4 4 16 13 11 9 8 10 12 13 13 12 13 11 9 7 8 9 10 10 11 13 14 13 12 9 8 8 9 9 7
4 3 6 5 4 5 2 3 3 15 18 11 5 8 5 17 14 10 9 10 11 12 14 16 15 13 11 9 8 10 11 12 13 14 13 11 11 10 8 7 6 6 6 6
4 4 7 8 4 4 3 7 7 8 8 9 11 9 11 14 13 12 11 10 10 10 12 13 12 11 12 10 11 12 13 14 14 13 11 11 9 8 6 5 3 3 4 5
7 5 5 11 3 7 10 8 5 8 8 7 9 11 13 15 14 13 11 11 11 10 11 12 11 10 10 12 15 16 16 15 13 12 11 9 7 5 3 1 1 3 4 5
2 4 8 10 10 9 8 6 6 6 7 8 7 7 8 12 15 15 13 12 10 10 12 12 9 11 12 15 18 17 16 14 13 12 10 9 7 5 2 1 2 3 5 6
3 5 6 9 18 15 11 9 8 6 4 5 7 7 8 9 14 16 14 13 12 11 13 14 13 14 16 18 17 17 16 14 13 12 10 8 6 5 3 3 4 4 6 7
4 6 5 4 11 17 15 12 9 7 7 6 5 7 8 9 10 14 17 17 15 13 13 14 14 17 19 20 18 17 16 16 14 12 11 9 7 6 5 5 5 5 7 7
8 4 4 8 9 11 12 10 9 8 8 9 8 8 10 11 10 10 14 18 17 15 12 13 16 18 19 20 20 19 17 16 15 14 12 11 9 7 6 6 6 6 7 8
9 8 6 9 7 10 10 8 8 7 8 9 9 9 10 12 12 13 13 14 17 16 15 15 17 19 20 21 21 20 18 17 15 14 13 12 10 9 8 8 8 8 8 9
13 10 6 6 8 8 7 7 7 7 7 7 8 9 11 12 14 14 12 12 16 19 20 20 19 20 20 22 22 21 20 19 17 15 14 13 12 11 11 10 10 10 10 10
12 9 8 9 9 9 9 9 10 9 9 9 10 10 10 11 13 15 16 16 18 22 23 21 21 19 19 21 22 22 21 20 19 17 16 15 14 13 13 12 11 11 11 11
12 10 9 10 9 8 7 8 10 11 12 13 14 14 14 13 14 16 16 17 17 18 21 22 21 20 21 22 23 22 21 21 21 20 18 16 15 15 14 13 13 13 12 13
9 9 9 9 9 8 8 9 9 10 12 12 14 15 16 16 17 15 16 15 16 18 20 22 22 21 21 22 23 23 23 23 23 21 19 19 17 16 16 15 14 14 13 13
8 8 8 9 8 7 7 8 8 9 10 12 14 15 15 16 15 16 15 16 18 19 18 20 22 23 24 24 24 24 25 25 24 23 21 20 19 18 17 16 15 15 15 15
3 3 3 4 3 3 3 4 5 6 7 8 8 9 10 11 12 14 15 16 15 16 16 16 20 23 25 27 27 29 30 28 26 25 23 22 20 19 18 17 16 16 16 15
8 8 7 6 4 3 3 3 4 5 5 5 5 5 5 6 9 11 13 14 12 15 16 16 19 21 24 27 30 32 32 32 30 30 25 23 22 20 19 18 17 17 16 16
6 5 4 3 1 1 2 4 5 5 5 5 5 5 5 6 7 9 11 13 13 15 16 17 18 20 20 22 27 31 32 33 34 32 27 23 24 22 20 18 18 18 18 17
5 3 2 2 2 2 3 5 6 6 6 7 7 7 7 7 7 8 8 10 10 11 12 13 14 14 15 20 23 25 27 30 32 33 31 29 28 21 20 19 19 20 19 18
2 1 3 4 4 4 4 6 6 7 7 7 7 8 8 7 6 7 7 8 9 10 12 12 13 14 16 18 20 21 23 25 27 29 29 30 27 22 21 20 21 20 19 18
2 2 4 5 5 5 6 7 7 7 7 7 7 8 8 9 9 8 8 8 9 10 10 10 10 10 13 16 17 18 20 21 23 25 25 26 28 22 21 20 20 20 20 19
5 5 7 7 6 5 5 6 7 8 8 7 8 9 8 8 8 9 9 9 9 9 9 9 10 12 13 14 16 17 19 20 21 23 24 26 29 28 23 22 20 21 20 20
9 9 9 8 6 6 6 7 7 8 9 9 8 8 9 9 9 9 9 9 9 9 9 10 10 11 12 14 15 15 16 17 18 19 21 23 23 23 25 22 19 21 20 20
Wind_Direction
160 132 145 200 200 182 183 191 163 235 194 200 189 189 194 196 189 188 190 196 208 216 224 236 243 244 247 253 254 260 262 270 287 297 285 281 263 247 274 81 76 74 67 60
306 223 232 246 231 222 213 209 246 245 291 215 201 201 169 183 190 186 195 208 217 223 216 228 240 241 245 251 255 260 259 269 288 283 275 184 124 121 121 109 92 83 72 66
264 177 282 303 229 211 201 196 207 209 220 53 149 160 173 187 196 208 222 223 228 229 225 230 236 241 243 248 251 253 257 267 259 202 145 135 126 124 112 101 91 85 81 78
214 76 314 244 156 196 211 199 194 197 217 211 205 181 182 196 211 217 221 227 225 222 223 228 237 236 237 244 251 245 242 233 196 141 137 132 125 118 110 102 99 94 88 79
155 204 274 285 228 168 171 236 206 205 214 198 169 158 203 207 207 211 221 224 221 223 225 227 226 233 240 248 245 231 206 180 150 143 140 132 127 119 111 107 101 96 89 81
166 183 237 252 203 198 124 268 217 191 208 218 167 190 241 197 203 208 222 232 225 220 226 226 225 234 243 250 230 197 173 157 148 144 136 131 127 121 116 110 99 85 82 70
230 245 281 244 161 131 135 227 45 180 193 205 188 208 218 184 191 201 208 212 216 219 223 220 222 230 237 242 204 179 168 161 152 145 143 136 134 130 123 111 96 78 56 41
185 221 267 159 120 186 165 127 118 126 155 165 195 182 180 190 199 202 203 210 219 215 210 210 215 226 234 211 181 171 167 157 151 151 151 149 147 144 137 118 86 57 30 14
179 212 228 194 197 159 160 154 157 166 165 175 184 196 202 204 209 211 214 214 215 221 218 215 220 215 198 184 173 165 162 160 163 165 165 166 170 171 151 107 10 356 359 351
113 245 205 191 187 190 193 196 177 169 173 184 201 217 224 224 222 219 219 222 228 223 218 221 215 199 184 178 172 169 172 174 174 178 180 183 191 198 213 270 305 320 334 331
248 275 291 222 205 197 190 184 178 171 183 201 210 224 232 241 232 231 233 230 230 231 227 218 206 191 184 180 180 179 182 186 189 193 197 198 204 217 238 264 293 320 324 326
220 227 220 203 210 206 186 188 204 225 242 245 249 250 246 241 247 239 233 228 227 225 223 220 205 195 191 187 190 194 196 199 202 207 209 212 217 226 243 261 287 305 317 322
194 161 107 152 164 177 192 203 221 244 261 257 256 247 244 241 245 240 231 230 233 233 230 223 213 204 201 199 202 206 207 209 212 215 220 224 229 238 253 265 283 298 307 317
201 193 167 197 218 212 216 226 243 257 264 260 253 244 241 244 247 248 250 246 238 235 232 227 220 216 210 209 211 212 214 217 222 225 229 235 242 251 260 267 277 289 300 309
212 230 222 200 198 214 233 243 249 257 265 263 258 252 246 244 250 260 260 254 241 237 236 234 228 221 215 212 217 217 219 223 226 230 233 238 244 252 262 269 275 285 295 303
196 209 216 215 219 232 250 263 266 268 267 266 262 260 259 258 252 254 253 250 245 241 240 239 238 230 225 221 219 221 223 226 230 234 237 242 246 251 258 265 274 281 288 298
193 206 213 220 230 239 245 260 268 270 268 267 267 266 263 259 255 253 254 255 256 253 248 247 246 239 229 226 225 227 229 230 234 237 240 246 250 253 258 264 273 279 287 295
212 204 208 218 229 245 261 270 274 276 276 276 276 270 261 258 256 257 260 260 257 253 246 245 245 240 237 232 229 229 231 234 238 241 245 247 252 255 258 265 273 281 286 290
208 215 227 242 250 264 270 273 278 283 281 281 280 272 262 258 253 250 253 253 254 257 256 250 246 242 240 238 234 231 232 235 239 243 246 248 250 255 261 267 272 279 284 289
200 201 204 212 222 233 253 272 293 309 296 294 296 281 267 256 247 245 248 252 259 263 260 252 249 246 244 242 240 237 230 231 237 240 245 250 252 257 261 265 270 275 281 287
113 105 101 97 96 84 48 11 350 341 343 327 310 306 290 271 258 254 255 258 261 259 255 251 248 248 247 244 242 243 239 234 228 237 237 245 253 257 261 265 270 274 278 283
120 112 108 103 105 350 343 341 341 340 342 332 320 321 312 291 275 270 268 269 264 261 262 260 257 256 253 250 245 247 247 243 239 238 236 239 247 252 260 264 267 270 273 278
136 113 76 44 11 345 340 337 339 336 336 334 332 330 322 311 304 300 286 277 275 272 266 264 260 253 249 246 246 248 249 249 248 248 245 236 241 246 259 263 266 268 272 276
139 33 355 347 341 335 331 338 343 340 337 333 328 326 324 319 311 304 299 294 290 283 280 277 271 256 248 250 248 248 249 250 251 252 254 251 246 239 246 261 267 270 269 270
259 317 329 326 324 326 333 342 344 343 339 335 328 321 315 313 313 310 307 306 303 300 294 285 279 265 256 260 260 256 256 257 256 255 254 248 248 245 248 252 263 266 266 266
276 299 312 313 310 313 323 331 333 335 339 340 336 333 331 318 308 308 307 306 306 305 304 294 286 280 275 271 267 265 265 265 262 257 252 252 247 248 253 246 258 264 265 267
269 288 300 296 295 301 313 323 330 332 331 334 339 337 335 333 327 321 314 310 306 305 303 299 295 290 281 275 278 279 277 274 270 268 262 256 255 254 250 243 253 261 260 271
Height
1476 1475 1477 1480 1479 1483 1491 1484 1496 1480 1478 1472 1472 1472 1473 1475 1478 1480 1481 1483 1485 1486 1487 1488 1488 1488 1488 1487 1485 1486 1485 1485 1484 1483 1482 1481 1480 1480 1480 1479 1478 1477 1477 1474
1496 1477 1478 1481 1477 1477 1480 1479 1478 1479 1479 1468 1468 1470 1471 1473 1476 1477 1478 1480 1482 1483 1484 1485 1486 1486 1485 1483 1485 1484 1484 1483 1482 1481 1481 1480 1479 1479 1481 1480 1478 1477 1476 1474
1494 1478 1481 1490 1469 1469 1470 1469 1468 1477 1468 1464 1466 1467 1469 1472 1473 1473 1475 1476 1478 1480 1481 1481 1483 1483 1482 1483 1483 1483 1482 1481 1480 1481 1480 1480 1480 1481 1481 1480 1478 1478 1477 1477
1497 1487 1502 1462 1454 1456 1458 1460 1463 1463 1463 1463 1464 1465 1467 1468 1469 1471 1472 1473 1474 1475 1477 1479 1479 1480 1479 1481 1480 1481 1479 1479 1479 1478 1479 1481 1481 1481 1481 1481 1480 1480 1479 1478
1489 1489 1471 1456 1454 1455 1459 1458 1455 1457 1458 1460 1462 1463 1465 1465 1466 1468 1469 1471 1471 1473 1474 1476 1476 1477 1477 1478 1477 1478 1478 1478 1477 1479 1480 1481 1482 1482 1483 1483 1482 1482 1480 1480
1479 1487 1473 1450 1448 1448 1449 1453 1446 1448 1453 1456 1461 1464 1461 1461 1463 1465 1466 1467 1468 1470 1471 1473 1474 1474 1475 1475 1476 1476 1476 1477 1477 1480 1481 1482 1484 1484 1484 1484 1484 1482 1481 1481
1481 1476 1463 1448 1447 1448 1455 1453 1444 1444 1449 1453 1456 1456 1457 1458 1461 1463 1464 1466 1467 1468 1470 1471 1472 1472 1473 1473 1473 1474 1475 1476 1478 1480 1482 1483 1484 1485 1485 1485 1484 1483 1482 1482
1476 1472 1473 1446 1449 1451 1447 1446 1446 1447 1450 1451 1453 1455 1456 1458 1460 1461 1462 1463 1464 1466 1467 1468 1469 1469 1470 1471 1472 1473 1475 1477 1479 1482 1483 1484 1485 1486 1485 1484 1484 1483 1483 1482
1460 1457 1445 1445 1445 1444 1445 1446 1447 1448 1449 1450 1452 1454 1455 1456 1458 1459 1460 1462 1462 1463 1464 1465 1466 1466 1467 1469 1471 1473 1476 1478 1480 1482 1483 1484 1485 1485 1484 1483 1484 1483 1482 1482
1449 1442 1442 1442 1444 1444 1445 1446 1447 1447 1448 1448 1450 1451 1452 1453 1455 1456 1457 1458 1459 1460 1461 1462 1463 1465 1467 1468 1471 1473 1475 1477 1479 1481 1483 1483 1484 1484 1484 1484 1483 1483 1482 1481
1445 1440 1440 1440 1440 1442 1444 1445 1446 1448 1448 1448 1448 1449 1450 1450 1451 1452 1454 1456 1457 1458 1459 1460 1461 1463 1465 1468 1470 1472 1474 1476 1478 1480 1481 1481 1482 1483 1483 1483 1483 1481 1481 1480
1444 1437 1437 1437 1437 1439 1441 1443 1445 1446 1447 1447 1446 1446 1446 1447 1448 1449 1451 1453 1454 1455 1456 1457 1459 1461 1463 1466 1468 1471 1473 1475 1477 1478 1479 1479 1480 1481 1481 1481 1480 1480 1479 1478
1434 1436 1436 1437 1438 1439 1440 1442 1443 1444 1444 1444 1444 1444 1444 1445 1446 1446 1448 1449 1450 1451 1453 1454 1456 1458 1461 1464 1466 1469 1471 1473 1474 1475 1476 1477 1477 1478 1478 1479 1478 1478 1477 1475
1431 1433 1435 1436 1437 1438 1439 1439 1440 1441 1441 1441 1442 1442 1443 1443 1443 1443 1444 1446 1447 1448 1449 1451 1453 1455 1458 1461 1463 1466 1468 1470 1471 1472 1473 1474 1475 1475 1476 1476 1476 1475 1474 1473
1427 1429 1430 1433 1435 1437 1437 1437 1437 1438 1438 1438 1439 1439 1439 1439 1439 1439 1441 1443 1444 1445 1446 1447 1449 1452 1454 1457 1459 1462 1464 1465 1468 1469 1470 1471 1471 1472 1472 1472 1472 1472 1471 1470
1425 1427 1429 1431 1433 1434 1435 1435 1434 1434 1434 1435 1435 1436 1436 1436 1436 1436 1437 1438 1439 1439 1441 1443 1445 1448 1450 1452 1455 1457 1459 1462 1463 1465 1466 1467 1467 1468 1468 1468 1468 1468 1467 1466
1423 1425 1426 1428 1430 1430 1431 1432 1431 1431 1430 1431 1431 1431 1431 1431 1431 1431 1431 1433 1434 1435 1436 1438 1441 1444 1446 1448 1450 1452 1455 1457 1459 1460 1461 1462 1463 1464 1464 1464 1464 1464 1463 1462
1421 1422 1423 1425 1427 1427 1427 1427 1427 1427 1426 1426 1426 1426 1425 1426 1426 1427 1427 1428 1429 1429 1431 1433 1436 1439 1441 1443 1445 1447 1450 1452 1453 1455 1456 1457 1458 1459 1460 1460 1459 1459 1459 1458
1419 1419 1420 1422 1423 1423 1424 1424 1424 1423 1422 1421 1420 1420 1420 1420 1421 1422 1422 1423 1423 1424 1426 1428 1429 1431 1433 1436 1439 1441 1443 1446 1447 1449 1450 1452 1452 1454 1454 1454 1454 1454 1454 1453
1417 1418 1419 1420 1420 1421 1421 1421 1420 1419 1418 1417 1416 1415 1415 1415 1416 1417 1417 1418 1419 1420 1420 1422 1423 1424 1426 1429 1431 1433 1435 1437 1440 1442 1444 1446 1447 1448 1448 1449 1449 1449 1448 1447
1417 1417 1418 1418 1419 1419 1420 1420 1419 1418 1416 1415 1414 1413 1413 1413 1413 1413 1413 1414 1415 1415 1415 1415 1417 1418 1419 1421 1423 1425 1427 1428 1430 1433 1435 1438 1441 1442 1443 1443 1443 1443 1442 1441
1418 1419 1420 1420 1420 1420 1419 1419 1418 1417 1415 1414 1413 1412 1411 1410 1410 1410 1410 1410 1410 1410 1410 1410 1411 1412 1413 1414 1416 1417 1419 1420 1422 1424 1427 1430 1433 1434 1435 1436 1436 1436 1436 1435
1419 1420 1420 1419 1419 1418 1418 1417 1416 1415 1413 1412 1411 1410 1409 1409 1408 1407 1406 1406 1406 1405 1405 1406 1406 1406 1407 1408 1408 1409 1411 1413 1415 1417 1419 1421 1423 1425 1428 1429 1429 1429 1429 1429
1419 1419 1419 1418 1417 1417 1417 1415 1414 1413 1412 1411 1410 1409 1408 1407 1406 1405 1405 1404 1403 1402 1401 1401 1401 1401 1401 1401 1402 1403 1404 1406 1408 1410 1412 1414 1415 1417 1419 1421 1422 1422 1422 1422
1418 1418 1417 1417 1416 1415 1415 1414 1413 1412 1411 1410 1409 1408 1407 1405 1404 1403 1402 1401 1400 1399 1398 1398 1397 1397 1397 1397 1398 1398 1399 1401 1402 1403 1405 1406 1408 1409 1411 1413 1414 1414 1415 1415
1417 1417 1416 1415 1415 1414 1413 1413 1412 1411 1410 1409 1408 1406 1404 1403 1402 1401 1400 1398 1397 1396 1395 1394 1394 1393 1393 1393 1393 1393 1394 1395 1395 1396 1397 1399 1400 1400 1402 1404 1405 1406 1407 1407
1415 1415 1414 1413 1413 1412 1412 1411 1410 1409 1408 1407 1406 1404 1403 1401 1400 1398 1397 1395 1394 1393 1392 1391 1390 1390 1389 1389 1388 1388 1388 1389 1389 1389 1390 1391 1392 1393 1395 1396 1398 1399 1399 1400